CUTE-1 (CO-55) 1 27844U 03031E 26104.46186940 .00000209 00000+0 10934-3 0 9993 2 27844 98.6765 113.8179 0009852 18.0224 342.1302 14.24295708182603 CUBESAT XI-IV (CO-57) 1 27848U 03031J 26103.57507156 .00000185 00000+0 10026-3 0 9999 2 27848 98.6796 112.7063 0010141 37.9126 322.2764 14.23586039182188 CUBESAT XI-V 1 28895U 05043F 26104.86908954 .00000878 00000+0 14655-3 0 9992 2 28895 98.2906 259.1951 0014942 50.4277 309.8247 14.72464120 92437 CUTE-1.7+APD II (CO-65) 1 32785U 08021C 26104.86172903 .00002708 00000+0 17613-3 0 9992 2 32785 97.8245 85.0082 0007292 237.9227 122.1294 15.08855999975648 CANX-2 1 32790U 08021H 26104.87603037 .00002540 00000+0 18267-3 0 9996 2 32790 97.8608 83.4623 0008731 256.1034 103.9221 15.05170486975283 SEEDS II (CO-66) 1 32791U 08021J 26104.43703382 .00009383 00000+0 31979-3 0 9990 2 32791 97.7523 99.4047 0004126 138.8857 221.2694 15.30601442977536 SWISSCUBE 1 35932U 09051B 26104.19559638 .00000643 00000+0 13697-3 0 9997 2 35932 98.4073 10.9647 0007962 57.3265 302.8702 14.62356031879809 BEESAT-1 1 35933U 09051C 26104.65136913 .00000503 00000+0 11110-3 0 9999 2 35933 98.4001 11.1955 0006532 69.0028 291.1870 14.61614819879902 ITUPSAT1 1 35935U 09051E 26104.17572017 .00000489 00000+0 11121-3 0 9992 2 35935 98.4089 9.9714 0008771 78.6877 281.5308 14.60342610879391 TISAT 1 1 36799U 10035E 26104.56657884 .00010793 00000+0 38227-3 0 9999 2 36799 98.0674 45.6163 0004727 101.4698 258.7071 15.29318871857975 AEROCUBE 4.5A 1 38767U 12048K 26104.74381676 .00089792 00000+0 71342-3 0 9995 2 38767 64.6327 253.8160 0030456 211.2113 148.7230 15.70124465362635 STRAND-1 1 39090U 13009E 26104.56014111 .00000193 00000+0 79145-4 0 9998 2 39090 98.3911 286.3640 0009722 65.2452 294.9746 14.37125228687925 BRITE-AUSTRIA 1 39091U 13009F 26104.75478111 .00000107 00000+0 50948-4 0 9999 2 39091 98.3981 285.7641 0011338 72.1169 288.1253 14.36516340687943 NEE-01 PEGASO 1 39151U 13018B 26104.81857063 .00001614 00000+0 15955-3 0 9992 2 39151 98.1123 246.9231 0012892 19.1668 341.0033 14.93352845701247 POPACS 2 1 39269U 13055E 26103.72772486 .00013304 00000+0 22666-3 0 9993 2 39269 80.9930 217.8831 0424114 40.8663 322.3538 14.89553484653611 POPACS 3 1 39270U 13055F 26104.79697441 .00003897 00000+0 94581-4 0 9992 2 39270 81.0001 297.8564 0555866 262.8625 90.9084 14.54691236629334 ZACUBE-1 (TSHEPISOSAT) 1 39417U 13066B 26104.87402616 .00002285 00000+0 18172-3 0 9995 2 39417 97.8127 66.8749 0044951 103.1758 257.4486 15.00667069671233 WNISAT-1 1 39423U 13066H 26104.86873926 .00000512 00000+0 10126-3 0 9999 2 39423 97.7113 258.5523 0164587 71.5718 290.3296 14.57985263657505 TRITON-1 1 39427U 13066M 26104.81044014 .00001174 00000+0 14630-3 0 9995 2 39427 97.8278 16.0665 0092076 80.9642 280.1978 14.81396428664709 GOMX-1 1 39430U 13066Q 26104.85302553 .00000963 00000+0 15238-3 0 9998 2 39430 97.6541 309.3007 0127634 281.1522 77.5358 14.69232815660614 CUBEBUG-2 (LO-74) 1 39440U 13066AA 26104.81769558 .00001855 00000+0 17739-3 0 9996 2 39440 97.8861 53.5706 0056544 236.6990 122.8807 14.93335670667532 NEE-02 KRYSAOR 1 39441U 13066AB 26103.78983579 .00001269 00000+0 14504-3 0 9999 2 39441 97.8853 43.4906 0064802 281.2686 78.1252 14.86393035666636 FUNCUBE-1 (AO-73) 1 39444U 13066AE 26104.86471219 .00005573 00000+0 35475-3 0 9997 2 39444 97.8231 75.0488 0038536 60.7459 299.7613 15.08584893670117 UWE-3 1 39446U 13066AG 26103.43540102 .00002441 00000+0 21488-3 0 9999 2 39446 97.8655 59.1237 0049495 173.3046 186.8847 14.96527693667890 BRITE-CA1 (TORONTO) 1 40020U 14033L 26104.84760075 .00000691 00000+0 11128-3 0 9998 2 40020 97.9635 234.9833 0079978 119.3275 241.5953 14.72577588632898 DUCHIFAT-1 1 40021U 14033M 26104.86469699 .00040518 00000+0 61071-3 0 9993 2 40021 98.0560 155.6851 0003097 285.1632 74.9277 15.54684704645885 NANOSATC-BR1 1 40024U 14033Q 26104.52252663 .00008122 00000+0 28702-3 0 9999 2 40024 98.0789 131.3554 0004820 65.9114 294.2628 15.29490059644242 QB50P1 1 40025U 14033R 26104.59506308 .00004204 00000+0 21478-3 0 9995 2 40025 98.0997 111.3272 0010755 85.9129 274.3332 15.17261809643382 QB50P2 1 40032U 14033Y 26104.55080495 .00003669 00000+0 20415-3 0 9997 2 40032 98.0749 97.5168 0008651 43.5722 316.6190 15.14329457643030 PERSEUS-M2 1 40037U 14033AD 26104.83078339 .00000516 00000+0 52330-4 0 9997 2 40037 97.9915 54.1124 0012507 142.5268 217.6826 14.95316126641311 PERSEUS-M1 1 40039U 14033AF 26104.80855334 .00000806 00000+0 78290-4 0 9999 2 40039 97.9600 47.9295 0012418 141.5164 218.6944 14.95420956641160 POLYITAN-1 1 40042U 14033AJ 26104.76704704 .00009612 00000+0 32233-3 0 9992 2 40042 98.1004 125.1267 0007568 25.5893 334.5719 15.31121228643883 TIGRISAT 1 40043U 14033AK 26104.84547625 .00001164 00000+0 14050-3 0 9990 2 40043 97.7745 256.3492 0048093 282.7057 76.8785 14.84897617636223 AEROCUBE 6A 1 40045U 14033AM 26104.42114666 .00004004 00000+0 34479-3 0 9994 2 40045 97.7187 272.1018 0037827 227.1472 132.6571 14.97373421637076 AEROCUBE 6B 1 40046U 14033AN 26104.41784654 .00004427 00000+0 36742-3 0 9998 2 40046 97.7175 271.7595 0036296 217.5933 142.2752 14.98790773637200 CANX-4 1 40055U 14034C 26104.38148313 .00000534 00000+0 75981-4 0 9995 2 40055 98.3214 337.3265 0012014 211.4480 148.6014 14.81149082635084 CANX-5 1 40056U 14034D 26104.38065074 .00000538 00000+0 76496-4 0 9994 2 40056 98.3218 337.3654 0012006 211.7219 148.3270 14.81166037625893 UKUBE-1 1 40074U 14037F 26104.87859626 .00005300 00000+0 30832-3 0 9990 2 40074 98.4243 101.5540 0002541 60.2191 299.9289 15.12558294638988 BRITE-PL2 (HEWELIUSZ) 1 40119U 14049B 26104.56541991 .00000928 00000+0 91699-4 0 9992 2 40119 97.9018 216.1137 0013147 325.1672 34.8686 14.94358215631944 AEROCUBE 5C 1 40965U 15058B 26104.73080786 .00001528 00000+0 14652-3 0 9991 2 40965 64.7649 99.9410 0129591 88.1935 273.4014 14.91080418356196 AEROCUBE 7 1 40966U 15058C 26104.63792789 .00002279 00000+0 19377-3 0 9997 2 40966 64.7610 83.7844 0119489 87.0645 274.4136 14.95204312356458 FOX-1A (AO-85) 1 40967U 15058D 26104.42202824 .00001456 00000+0 14255-3 0 9997 2 40967 64.7725 117.0845 0128374 81.6261 279.9381 14.90582887104066 SINOD-D 1 1 40968U 15058E 26104.69019468 .00002311 00000+0 19653-3 0 9995 2 40968 64.7734 97.6769 0116850 78.4604 282.9602 14.95370387107165 SNAP-3 ALICE 1 40970U 15058G 26104.85289734 .00044620 00000+0 79128-3 0 9993 2 40970 64.7554 320.8782 0031759 53.7444 306.6624 15.49422083107042 LMRST-SAT 1 40971U 15058H 26104.42841922 .00001490 00000+0 14630-3 0 9995 2 40971 64.7731 113.2834 0130292 83.6387 277.9544 14.90213441104052 SNAP-3 EDDIE 1 40972U 15058J 26104.56715995 .00040565 00000+0 69371-3 0 9999 2 40972 64.7471 313.0146 0032560 58.0020 302.4278 15.50448112109133 PROPCUBE 3 1 40973U 15058K 26104.68589907 .00001916 00000+0 17024-3 0 9990 2 40973 64.7670 90.8655 0122643 85.1355 276.3748 14.93799144105311 BISONSAT 1 40974U 15058L 26104.81607267 .00007311 00000+0 37330-3 0 9993 2 40974 64.7625 18.3065 0077812 75.2019 285.7709 15.14812122106011 SNAP-3 JIMI 1 40975U 15058M 26104.26832877 .00003657 00000+0 26293-3 0 9995 2 40975 64.7651 61.8956 0104697 81.6880 279.6092 15.01582864104627 PROPCUBE 1 (FLORA) 1 40976U 15058N 26104.79509406 .00001102 00000+0 11649-3 0 9995 2 40976 64.7722 131.6476 0129226 85.7731 275.8135 14.88864571106827 SINOD-D 3 1 40977U 15058P 26104.43836066 .00001775 00000+0 16181-3 0 9994 2 40977 64.7705 114.8073 0117644 83.5510 277.8983 14.93514457105235 HORYU-4 1 41340U 16012D 26104.58874023 .00078460 00000+0 60057-3 0 9997 2 41340 30.9890 175.5144 0006087 132.2381 227.8791 15.70725256560749 RAVAN 1 41849U 16067B 26104.39658576 .00023578 00000+0 43279-3 0 9990 2 41849 97.9978 346.8798 0004880 204.1862 155.9159 15.49262923517804 CELTEE 1 1 41850U 16067C 26104.06069809 .00002732 00000+0 13405-3 0 9998 2 41850 98.0770 326.2548 0002425 95.0638 265.0871 15.19058063516149 OPTICUBE 04 1 41851U 16067D 26104.84091323 .00001389 00000+0 91195-4 0 9991 2 41851 98.0772 313.8058 0015093 336.7448 23.3095 15.09395826515613 AEROCUBE 8D 1 41852U 16067E 26104.13613583 .00003655 00000+0 15652-3 0 9993 2 41852 98.0782 329.4492 0003669 21.8003 338.3388 15.23517434516314 AEROCUBE 8C 1 41853U 16067F 26104.56517279 .00004191 00000+0 17770-3 0 9995 2 41853 98.0651 327.2221 0003882 284.7750 75.3055 15.23753540516377 CORVUS BC2 1 42846U 17042X 26104.87828565 .00002297 00000+0 16187-3 0 9995 2 42846 97.3990 268.7305 0012448 333.6286 26.4306 15.05895800477532 CORVUS BC1 1 42847U 17042Y 26104.41500602 .00001848 00000+0 13050-3 0 9992 2 42847 97.4022 269.0575 0010896 310.7985 49.2297 15.06071545477490 MAKERSAT 0 1 43016U 17073D 26104.64023135 .00010766 00000+0 31130-3 0 9999 2 43016 97.4727 346.7679 0114465 138.0551 222.9528 15.29424677456741 SIRION PATHFINDER-2 1 43759U 18099B 26104.61146196 .00003018 00000+0 16981-3 0 9991 2 43759 97.4322 155.1872 0009744 151.6557 208.5207 15.13967913403006 CORVUS BC4 1 43767U 18099K 26104.86402554 .00002730 00000+0 16268-3 0 9998 2 43767 97.4138 149.7008 0007590 209.5154 150.5649 15.11987162402835 M2 PATHFINDER 1 45727U 20037E 26104.79833971 .00001695 00000+0 12582-3 0 9998 2 45727 97.8173 295.3210 0011767 14.4895 345.6666 15.04404371315966 NETSAT-4 1 46504U 20068U 26104.04297608 .00009426 00000+0 22484-3 0 9997 2 46504 97.8633 107.2359 0005973 168.7490 191.3891 15.41786954305889 NETSAT-3 1 46505U 20068V 26104.45294214 .00009680 00000+0 24058-3 0 9994 2 46505 97.8674 105.9800 0005187 182.3473 177.7749 15.40532650305860 NETSAT-1 1 46506U 20068W 26104.72490552 .00006470 00000+0 20483-3 0 9990 2 46506 97.8754 101.3236 0003908 207.0703 153.0335 15.33132388305575 NETSAT-2 1 46507U 20068X 26104.74275245 .00012591 00000+0 28416-3 0 9998 2 46507 97.8644 107.6822 0003510 183.4461 176.6762 15.43371648305942 GREENCUBE (IO-117) 1 53109U 22080E 26104.52900949 -.00000003 00000+0 00000+0 0 9993 2 53109 70.1491 320.3949 0008894 304.3001 55.6817 6.42583333 87972 SITRO-AIS 5 (KATYS) 1 57176U 23091L 26104.83883420 .00006193 00000+0 22883-3 0 9994 2 57176 97.5116 168.1909 0010482 332.2376 27.8302 15.28054967154663 SITRO-AIS 6 (CHIRKIN) 1 57192U 23091AC 26104.87550725 .00003646 00000+0 14909-3 0 9995 2 57192 97.5122 167.6661 0011149 336.6551 23.4179 15.24953396154632 SITRO-AIS 8 (ANOKHIN) 1 57193U 23091AD 26104.83063523 .00007204 00000+0 24669-3 0 9995 2 57193 97.5110 169.5270 0009566 328.6034 31.4634 15.30492316154759 SITRO-AIS 7 (FARTUSHNIY) 1 57194U 23091AE 26104.86637449 .00003373 00000+0 13930-3 0 9995 2 57194 97.5120 167.5126 0011066 337.7080 22.3675 15.24673868154625 SITRO-AIS 10 (BURDAEV) 1 57199U 23091AK 26104.85421644 .00010412 00000+0 29631-3 0 9994 2 57199 97.5127 173.9885 0005360 301.0714 59.0003 15.36306165155032 SITRO-AIS 9 (SHCHUKIN) 1 57201U 23091AM 26104.86184970 .00010405 00000+0 30016-3 0 9998 2 57201 97.5126 173.7727 0005624 300.9693 59.0997 15.35878807155022 SITRO-AIS 12 (SMIRENNIY) 1 57204U 23091AQ 26104.86410788 .00010556 00000+0 30190-3 0 9990 2 57204 97.5137 174.2034 0005255 293.5131 66.5560 15.36149260155044 SITRO-AIS 11 (SHEFFER) 1 57208U 23091AU 26104.82878191 .00009931 00000+0 28080-3 0 9996 2 57208 97.5136 174.3770 0005184 293.6334 66.4365 15.36525420155051 SITRO-AIS 25 1 59066U 24039R 26104.85022316 .00003551 00000+0 28010-3 0 9991 2 59066 95.3926 191.5813 0145872 188.6753 171.1949 14.92986886115274 SITRO-AIS 26 1 59067U 24039S 26104.84320579 .00003198 00000+0 25372-3 0 9998 2 59067 95.3927 191.4869 0146174 189.2304 170.6231 14.92793558115260 SITRO-AIS 27 1 59068U 24039T 26104.83089450 .00002655 00000+0 20931-3 0 9991 2 59068 95.3928 191.7213 0145300 188.0458 171.8438 14.93197221115285 SITRO-AIS 28 1 59071U 24039U 26104.87682598 .00002665 00000+0 20991-3 0 9998 2 59071 95.3932 191.7967 0145154 187.7082 172.1914 14.93235578115298 GRBBETA 1 60237U 24128C 26104.49534375 .00002024 00000+0 14909-3 0 9991 2 60237 61.9887 79.6386 0048128 121.2198 239.3625 15.06133281 96673 OOV-CUBE (TUBSAT-30) 1 60240U 24128F 26104.90309068 .00001311 00000+0 11156-3 0 9999 2 60240 61.9931 86.1873 0051537 119.9338 240.6885 15.02462888 96609 ROBUSTA-3A (MEDITERRAN*) 1 60243U 24128J 26104.48001752 .00003914 00000+0 24217-3 0 9997 2 60243 61.9856 73.3601 0048837 114.9690 245.6490 15.10691613 96796 LASARSAT 1 62391U 24247Q 26104.84700609 .00018281 00000+0 41759-3 0 9995 2 62391 44.9743 257.0864 0006099 292.9658 67.0586 15.42631659 73522 CROCUBE 1 62394U 24247T 26104.45869782 .00020359 00000+0 44287-3 0 9991 2 62394 44.9722 257.4817 0005699 289.1059 70.9212 15.44022856 73481 FORESAIL-1 PRIME 1 66778U 25276DS 26104.46806562 .00002639 00000+0 13261-3 0 9991 2 66778 97.4227 178.9254 0001894 10.8434 349.2841 15.18123195 20734 KNACKSAT-2 1 67683U 98067XZ 26104.43290565 .00023109 00000+0 34523-3 0 9991 2 67683 51.6301 253.8399 0011305 320.3591 39.6572 15.54855751 10346